This is the latest recevied weather packets stored in our database for station/object DH1FR-13. If no packets are shown the sender has not sent any weather packets the latest 10 day(s).
| Time | Temp. | Humidity | Pressure | Rain* | Wind** | Luminosity | Snow |
|---|---|---|---|---|---|---|---|
| 1787701200 | 14.44° C | 99% | 1019.8 hPa | 0 mm | 0 m/s | - | - |
| 1787700600 | 14.44° C | 99% | 1020 hPa | 0 mm | 0 m/s | - | - |
| 1787700001 | 14.44° C | 99% | 1020.1 hPa | 0 mm | 0 m/s | - | - |
| 1787699400 | 14.44° C | 99% | 1019.9 hPa | 2.54 mm | 0 m/s | - | - |
| 1787698801 | 14.44° C | 99% | 1019.9 hPa | 2.54 mm | 0 m/s | - | - |
| 1787698201 | 14.44° C | 99% | 1019.8 hPa | 2.54 mm | 0 m/s | - | - |
| 1787697600 | 14.44° C | 99% | 1020.2 hPa | 2.54 mm | 0 m/s | - | - |
| 1787697000 | 14.44° C | 99% | 1020.1 hPa | 2.29 mm | 0 m/s | - | - |
| 1787696401 | 14.44° C | 99% | 1020.3 hPa | 2.29 mm | 0 m/s | - | - |
| 1787695801 | 14.44° C | 99% | 1020.2 hPa | 2.03 mm | 0 m/s | - | - |
| 1787695201 | 15° C | 99% | 1020.1 hPa | 2.03 mm | 0 m/s | - | - |
| 1787694600 | 14.44° C | 99% | 1020.1 hPa | 1.78 mm | 0 m/s | - | - |
| 1787694001 | 15° C | 99% | 1020 hPa | 1.27 mm | 0 m/s | - | - |
| 1787693400 | 15° C | 99% | 1020.2 hPa | 1.27 mm | 0 m/s | - | - |
| 1787692800 | 15° C | 99% | 1020.2 hPa | 1.27 mm | 0 m/s | - | - |
| 1787692201 | 15° C | 99% | 1020.1 hPa | 1.27 mm | 0 m/s | - | - |
| 1787691601 | 15° C | 99% | 1020.2 hPa | 1.27 mm | 0 m/s | - | - |
| 1787691001 | 15° C | 99% | 1020.1 hPa | 1.27 mm | 0 m/s | - | - |
| 1787690401 | 15° C | 99% | 1020 hPa | 1.27 mm | 0 m/s | - | - |
| 1787689801 | 15° C | 99% | 1020 hPa | 1.27 mm | 0 m/s | - | - |
| 1787689201 | 15° C | 99% | 1020.2 hPa | 1.27 mm | 0 m/s | - | - |
| 1787688601 | 15.56° C | 99% | 1019.8 hPa | 1.27 mm | 0 m/s | - | - |
| 1787688000 | 15.56° C | 99% | 1020 hPa | 1.27 mm | 0 m/s | - | - |
| 1787687401 | 15.56° C | 99% | 1020.2 hPa | 1.02 mm | 0 m/s | - | - |
| 1787686800 | 15.56° C | 99% | 1020 hPa | 1.02 mm | 0 m/s | - | - |
* Rain latest hour (hover to see other rain measurements)
** Current wind speed in m/s (hover to see current wind gust speed)